TimeEST,TemperatureF,Dew PointF,Humidity,Sea Level PressureIn,VisibilityMPH,Wind Direction,Wind SpeedMPH,Gust SpeedMPH,PrecipitationIn,Events,Conditions,WindDirDegrees,DateUTC
12:54 AM,37.9,19.0,47,30.00,10.0,WSW,6.9,-,N/A,,Overcast,240,2013-02-03 05:54:00
1:54 AM,39.0,21.0,49,29.98,10.0,WSW,13.8,-,N/A,,Overcast,250,2013-02-03 06:54:00
2:54 AM,39.0,21.9,50,29.96,10.0,West,8.1,-,N/A,,Overcast,270,2013-02-03 07:54:00
3:54 AM,37.9,24.1,57,29.91,10.0,WSW,6.9,-,N/A,,Overcast,250,2013-02-03 08:54:00
4:54 AM,36.0,24.1,62,29.90,10.0,NW,3.5,-,N/A,,Partly Cloudy,320,2013-02-03 09:54:00
5:54 AM,33.1,21.9,64,29.92,10.0,North,8.1,-,N/A,,Clear,360,2013-02-03 10:54:00
6:54 AM,32.0,19.9,61,29.92,10.0,North,5.8,-,N/A,,Overcast,10,2013-02-03 11:54:00
7:54 AM,33.1,21.0,61,29.92,10.0,NNE,8.1,-,N/A,,Overcast,30,2013-02-03 12:54:00
8:54 AM,33.1,21.9,64,29.93,10.0,North,6.9,-,N/A,,Overcast,360,2013-02-03 13:54:00
9:54 AM,34.0,23.0,64,29.91,10.0,North,6.9,-,N/A,,Overcast,10,2013-02-03 14:54:00
10:54 AM,36.0,21.9,57,29.90,10.0,NE,3.5,-,N/A,,Overcast,40,2013-02-03 15:54:00
11:54 AM,39.0,21.9,50,29.88,10.0,NW,6.9,-,N/A,,Overcast,320,2013-02-03 16:54:00
12:54 PM,41.0,19.0,41,29.86,10.0,NW,9.2,-,N/A,,Overcast,320,2013-02-03 17:54:00
1:54 PM,41.0,19.0,41,29.84,10.0,North,9.2,-,N/A,,Overcast,350,2013-02-03 18:54:00
2:54 PM,39.9,18.0,41,29.83,10.0,NW,10.4,-,N/A,,Overcast,320,2013-02-03 19:54:00
3:54 PM,39.9,19.9,45,29.84,10.0,NW,9.2,-,N/A,,Mostly Cloudy,310,2013-02-03 20:54:00
4:54 PM,37.0,19.9,50,29.86,10.0,NW,8.1,-,N/A,,Overcast,310,2013-02-03 21:54:00
5:54 PM,34.0,19.0,54,29.86,10.0,NW,3.5,-,N/A,,Clear,310,2013-02-03 22:54:00
6:54 PM,30.9,19.0,61,29.87,10.0,Calm,Calm,-,N/A,,Clear,0,2013-02-03 23:54:00
7:54 PM,28.0,19.0,69,29.88,10.0,Calm,Calm,-,N/A,,Mostly Cloudy,0,2013-02-04 00:54:00
8:54 PM,30.0,21.0,69,29.89,10.0,Calm,Calm,-,N/A,,Mostly Cloudy,0,2013-02-04 01:54:00
9:54 PM,30.9,21.0,67,29.90,10.0,Calm,Calm,-,N/A,,Overcast,0,2013-02-04 02:54:00
10:54 PM,30.9,21.9,69,29.90,10.0,NW,3.5,-,N/A,,Overcast,320,2013-02-04 03:54:00
11:54 PM,32.0,21.9,66,29.91,10.0,Calm,Calm,-,N/A,,Overcast,0,2013-02-04 04:54:00